User: anonymous   Login
Location: Unspecified
(0.0000°N, 0.0000°E)
Time: 23:14:56
(UTC+00:00)
Language:

M-CUBED/EXP-1 PRIME - Orbit

View from above orbital plane
View from above orbital plane
View from above satellite
View from above satellite

Ground track
Ground track

The orbit data is extracted from the following two-line orbital elements,

1 37855U 11061F   18050.94373073 +.00001990 +00000-0 +10941-3 0  9994
2 37855 101.7257 053.4744 0177687 069.1306 292.8829 15.04065595343551
Epoch (UTC): 19 February 2018 22:38:58
Eccentricity: 0.0177687
inclination: 101.7257°
perigee height: 431 km
apogee height: 677 km
right ascension of ascending node: 53.4744°
argument of perigee: 69.1306°
revolutions per day: 15.04065595
mean anomaly at epoch: 292.8829°
orbit number at epoch: 34355

The dashed part of the orbit path shows where the satellite is in the earth's shadow,  

DLR